www.pogodaiklimat.ru
ПОГОДА в Вилла Долорес
Время
(UTC), дата
21 25.11
00 26.11
03 26.11
06 26.11
09 26.11
12 26.11
15 26.11
18 26.11
21 26.11
00 27.11
03 27.11
06 27.11
09 27.11
12 27.11
15 27.11
18 27.11
21 27.11
00 28.11
03 28.11
06 28.11
09 28.11
12 28.11
15 28.11
18 28.11
21 28.11
00 29.11
03 29.11
06 29.11
09 29.11
12 29.11
15 29.11
18 29.11
21 29.11
00 30.11
03 30.11
06 30.11
09 30.11
12 30.11
15 30.11
18 30.11
21 30.11
03 1.12
06 1.12
09 1.12
12 1.12
15 1.12
18 1.12
21 1.12
00 2.12
03 2.12
06 2.12
09 2.12
12 2.12
15 2.12
18 2.12
Ветер
(напр.,м/с)
Видим. Явления Облачность Т
(С)
Тd
(С)
f
(%)
Тe
(С)
Тes
(С)
Комфортность P
(гПа)
Po
(гПа)
Тmin
(С)
Tmax
(С)
R
(мм)
R24
(мм)
S
(см)
ЮЗ 4 30 км 1/1 1200 м
[Cu hum]
+33.9 +3.6 15 +31 +34 жарко 1005.1 942.5
Ю 1 30 км ясно +27.2 +9.3 32 +27 +27 жарко 1005.5 943.2 +23.1 +34.9
ЮЗ 2 30 км 4/4 1500 м
[Sc]
+22.6 +12.0 51 +25 +25 комфорт 1008.0 945.2
СВ 4 30 км зарница 4/4 1200 м
[Cb cap]
+22.4 +13.3 56 +25 +25 комфорт 1008.4 945.8
Ю 4 30 км 5/5 1200 м
[Cu hum]
+17.9 +3.7 39 +18 +18 1011.0 947.8
Ю 3 20 км мгла 6/6 1200 м
[Cu Sc]
+19.9 +1.4 29 +20 +22 1016.1 952.1 +17.6 +27.2
ЮЗ 4 20 км мгла 5/5 1200 м
[Cu med, cong]
+25.6 +0.6 19 +24 +30 комфорт 1015.3 951.6
СЗ 3 20 км мгла 5/4 1200 м
[Cu med, cong Cs]
+29.7 +8.4 26 +29 +38 жарко 1013.4 950.2
С 4 30 км 6/6 1200 м
[Cu med, cong]
+28.0 +8.5 29 +28 +29 жарко 1012.2 948.4
СВ 4 30 км 1/1 1500 м
[Sc]
+24.7 +5.8 30 +25 +25 комфорт 1013.6 949.6 +19.7 +31.2
В 3 30 км ясно +18.8 +5.9 43 +19 +19 1015.0 950.8
В 3 30 км ясно +16.4 +6.1 50 +16 +16 1013.8 950.0
В 2 30 км 1/1 1500 м
[Cu hum]
+15.1 +5.3 52 +15 +15 1013.5 949.3
СЗ 4 15 км мгла 8/3 1500 м
[Sc diur, vesp Ac cast]
+25.4 +11.8 43 +27 +28 жарко 1011.8 948.5 +14.6 +25.4
СЗ 7 15 км мгла 8/4 1500 м
[Cu med, cong Ac As]
+28.1 +12.5 38 +29 +31 жарко 1010.9 947.2
СЗ 9 10 км мгла {гроза} 6/4 1200 м
[Cb calv Ac As Ci ing]
+32.9 +10.6 26 +33 +33 жарко 1007.2 944.0
СВ 7 30 км 6/6 1200 м
[Cu Sc]
+33.1 +10.2 25 +33 +33 жарко 1004.8 941.7
СВ 7 30 км 9/9 1200 м
[Sc]
+28.6 +12.3 37 +30 +30 жарко 1006.3 943.6 +25.4 +34.5
С 3 30 км 8/8 1200 м
[Sc]
+26.0 +14.7 50 +29 +29 душно 1008.3 945.6
С 2 30 км 8/8 1200 м
[Sc]
+23.6 +15.7 61 +27 +27 жарко 1007.4 944.9
В 1 30 км 10/10 1200 м
[Sc]
+22.8 +16.1 66 +27 +27 душно 1007.8 945.3
Ю 2 30 км 9/9 1200 м
[Cu med, cong]
+26.0 +17.1 58 +30 +31 душно 1009.9 947.2 +22.5 +28.6
ЮЗ 3 30 км {гроза} 4/4 1200 м
[Cu med, cong]
+29.8 +15.3 41 +32 +43 душно 1009.3 946.6
ЮЗ 3 30 км {гроза} 4/4 1200 м
[Cu med, cong]
+33.4 +14.5 32 +35 +45 душно 1007.2 944.8
З 2 30 км 1/1 1200 м
[Cu med, cong]
+34.5 +11.5 25 +34 +39 очень
жарко
1005.5 943.3
В 4 20 км мгла 1/1 1200 м
[Cu med, cong]
+28.7 +11.8 35 +30 +30 жарко 1005.5 943.0 +26.0 +35.2
ЮВ 1 20 км мгла 4/4 1200 м
[Cu Sc]
+25.8 +13.4 46 +28 +28 жарко 1007.8 945.2
В 3 20 км мгла 3/3 1200 м
[Cu med, cong]
+23.5 +11.9 48 +25 +25 комфорт 1007.1 944.8
СЗ 3 30 км 1/1 1200 м
[Cu med, cong]
+22.9 +13.2 54 +26 +26 жарко 1007.1 944.8
ЮВ 2 30 км 6/6 1200 м
[Cu Sc]
+25.1 +16.6 59 +29 +31 душно 1009.5 946.0 +21.5 +28.7
Ю 9 30 км 8/8 1200 м
[Cb cap]
+27.2 +15.8 50 +30 +31 душно 1010.6 947.6
Ю 4 30 км 6/6 1200 м
[Cb cap]
+30.4 +15.5 41 +33 +38 душно 1008.5 945.7
Ю 4 30 км 5/5 1200 м
[Cu Sc]
+30.8 +14.2 36 +32 +34 жарко 1008.1 945.3
Ю 3 30 км ясно +23.1 +14.2 57 +27 +27 душно 1010.5 947.0 +23.1 +32.0
ЮВ 1 30 км 1/1 1500 м
[Sc]
+20.4 +14.6 69 +24 +24 комфорт 1014.9 951.0
В 2 30 км 9/9 1500 м
[Sc]
+18.5 +14.1 76 +20 +20 1015.2 951.4
В 2 30 км 10/8 1200 м
[Sc Ac As]
+19.2 +14.4 74 +21 +21 комфорт 1017.0 953.3
Ю 1 30 км {дождь} 9/6 900 м
[Sc Ac As]
+21.3 +15.8 71 +25 +26 комфорт 1018.3 954.0 +17.4 +23.2 0.7
З 7 20 км осадки на расстоянии 9/6 900 м
[Sc As op]
+23.2 +15.5 62 +27 +28 душно 1018.0 953.6
ЮЗ 4 30 км 8/8 900 м
[Cu hum Ac As]
+28.0 +14.7 44 +30 +33 жарко 1014.5 950.6
Ю 2 30 км 8/8 1200 м
[Sc]
+28.8 +13.5 39 +30 +32 жарко 1010.8 947.3
ЮВ 2 30 км 3/3 1500 м
[Sc]
+22.6 +11.5 49 +25 +25 комфорт 1012.2 948.4
штиль 0 30 км 8/8 1200 м
[Sc]
+22.2 +11.9 52 +25 +25 комфорт 1010.5 947.2
штиль 0 30 км 10/10 900 м
[Cu Sc]
+21.0 +11.6 55 +23 +23 комфорт 1010.5 947.2
штиль 0 30 км 10/10 1200 м
[Sc]
+23.0 +13.5 55 +26 +26 жарко 1012.3 948.6 +20.9 +25.0
ЮЗ 2 30 км 10/10 1200 м
[Cu Sc]
+25.0 +13.4 49 +27 +27 жарко 1011.2 947.7
З 1 30 км 6/6 1200 м
[Cu Sc]
+29.8 +15.1 41 +32 +41 душно 1008.1 945.2
ЮЗ 2 30 км 3/3 1200 м
[Cu hum]
+31.6 +14.0 34 +33 +36 жарко 1004.2 941.6
СЗ 4 30 км 8/5 1200 м
[Cu med, cong Cs]
+29.2 +13.6 38 +31 +31 жарко 1003.8 941.2 +22.8 +32.1
штиль 0 30 км 10/3 1200 м
[Sc Cs]
+25.8 +14.8 51 +29 +29 душно 1005.6 942.8
Ю 11 20 км гроза, ливневой дождь 10/10 900 м
[Cb cap]
+18.6 +14.6 78 +18 +18 1006.6 943.4 0.1
Ю 3 5000 м дождь {гроза} 10/4 900 м
[Sc As op]
+15.5 +12.5 82 +15 +15 1011.4 947.8
Ю 3 30 км {гроза, дождь} 8/3 300 м
[St Ac As]
+17.4 +15.4 88 +18 +20 1008.4 944.9 +15.4 +29.2 15
ЮЗ 7 30 км 8/8 450 м
[Cu Sc]
+25.1 +13.9 50 +27 +29 жарко 1009.0 945.8
ЮЗ 9 30 км 4/4 1200 м
[Cu med, cong]
+28.1 +5.0 23 +27 +28 жарко 1007.7 944.2
Местоположение метеостанции Вилла Долорес (Аргентина): широта -31.95 долгота -65.13 высота над уровнем моря 569 м.
В архиве по умолчанию представлена погода в Вилла Долорес за последнюю неделю. Архивные данные за месяц целиком и за предыдущие месяцы, начиная с января 2011 года, Вы можете получить, выбрав интересующий диапазон дат из раскрывающегося списка и нажав кнопку "Найти!".
*Определитесь, кто Вы:
Внимание! Время в таблицах - всемирное. Для получения местного времени необходимо прибавить поправку, которая равна -3 ч.
Смотрите также архив погоды в соседних городах и на ближайших метеорологических станциях:
Партнеры нашего сайта:      
Пояснения к столбцам:
  • Ветер - указаны скорость ветра в м/с - средняя за 10 мин, порывы в срок и между сроками (в фигурных скобках) и направление, откуда дует ветер: С - северный,
  • СВ - северо-восточный, В - восточный, ЮВ - юго-восточный, Ю - южный, ЮЗ - юго-западный, З - западный, СЗ - северо-западный.
  • Видимость - горизонтальная дальность видимости в метрах или километрах. При видимости от 1 до 10 км при отсутствии осадков обычно наблюдается дымка, при ухудшении видимости до 1 км и менее - туман. В сухую погоду видимость может ухудшаться дымом, пылью или мглою.
  • Явления - указаны атмосферные явления, наблюдавшиеся в срок или в последний час перед сроком; фигурными скобками обозначены явления, наблюдавшиеся между сроками (за 1-3 часа до срока); квадратными скобками обозначены град или гололедные отложения с указанием их диаметра в мм.
  • Облачность - указаны через наклонную черту общая и нижняя облачность в баллах и высота нижней границы облаков в метрах; квадратными скобками обозначены формы облаков: Ci - перистые, Cs - перисто-слоистые, Cc - перисто-кучевые, Ac - высококучевые, As - высокослоистые, Sc - слоисто-кучевые, Ns - слоисто-дождевые, Cu - кучевые, Cb - кучево-дождевые. Подробнее классификацию облаков см. в Атласе облаков (PDF).
  • T - Температура воздуха - температура, измеренная на высоте 2 м над землей.
  • Td - Температура точки росы - температура, при понижении до которой содержащийся в воздухе водяной пар достигнет насыщения.
  • f - Относительная влажность воздуха - влажноcть воздуха, измеренная на высоте 2 м над землей.
  • Te - Эффективная температура - температура, которую ощущает одетый по сезону человек в тени. Характеристика душности погоды. При расчете учитывается влияние влажности воздуха и скорости ветра на теплоощущения человека.
  • Tes - Эффективная температура на солнце - температура, которую ощущает человек, с поправкой на солнечный нагрев. Характеристика знойности погоды. Зависит от высоты солнца над горизонтом, облачности и скорости ветра. Ночью, в пасмурную погоду, а также при ветре 12 м/с и более поправка равна нулю.
  • P - Атмосферное давление - приведенное к уровню моря атмосферное давление.
  • Po - Атмосферное давление - измеренное на уровне метеостанции атмосферное давление.
  • Tmin - Минимальная температура - минимум температуры воздуха на высоте 2 м над землей.
  • Tmax - Максимальная температура - максимум температуры воздуха на высоте 2 м над землей.
  • R - Количество осадков - Количество выпавших осадков за период времени, мм. При наведении курсора мыши на число - период времени, за который выпало указанное количество осадков.
  • R24 - Количество осадков - Количество выпавших осадков за 24 часа, мм.
  • S - Снежный покров - Высота снежного покрова, см. При наведении курсора мыши на число - состояние снежного покрова и степень покрытия местности в баллах.